Temperature
23 22 22 22 21 21 21 21 20 20 20 20 20 19 19 19 19 19 19 19 19 19 19 19 19 19 19 19 18 18 18 18 18 18 18 18 18 18 18 18 18 18 17
22 22 22 22 22 21 21 21 20 20 20 20 20 20 19 19 19 19 19 19 19 19 19 19 19 19 19 19 19 18 18 18 18 18 18 18 18 18 18 18 18 17 17
23 22 22 22 22 22 21 21 21 20 20 20 20 19 19 19 19 19 19 19 19 19 19 19 19 19 19 19 19 18 18 18 18 18 18 18 17 17 18 18 18 17 17
23 23 23 22 22 22 22 21 21 21 20 20 20 20 19 19 19 19 19 19 19 19 19 19 19 19 19 19 19 18 18 18 18 18 18 18 18 17 17 17 17 17 17
23 23 23 23 23 22 22 21 21 21 20 20 20 20 20 19 19 19 19 19 19 19 19 19 19 19 19 19 19 18 18 18 18 18 18 18 18 18 17 17 17 17 17
24 23 23 23 23 22 22 22 21 21 21 20 20 20 20 20 19 19 19 19 19 19 19 19 19 19 19 19 18 18 18 18 18 18 18 18 17 17 17 17 17 17 17
24 23 23 23 23 22 22 22 21 21 21 20 20 20 20 20 19 19 19 19 19 19 19 19 19 19 18 18 18 18 18 18 18 18 17 17 17 17 17 17 17 17 17
24 24 23 23 23 23 22 22 22 21 21 21 20 20 20 20 20 19 19 19 19 19 19 19 19 18 18 18 18 18 18 18 17 17 17 17 17 17 17 17 17 16 16
24 24 24 23 23 23 23 22 22 22 21 21 21 21 20 20 20 20 19 19 19 19 19 19 19 18 18 18 18 18 18 17 17 17 17 17 17 17 17 17 17 17 16
24 24 24 24 23 23 23 22 22 22 22 21 21 21 20 20 20 20 19 19 19 19 19 19 19 18 18 18 18 18 17 17 17 17 17 17 17 17 17 16 16 16 16
24 24 23 23 23 23 23 22 22 22 21 21 21 21 20 20 20 20 20 19 19 19 19 19 18 18 18 18 18 18 17 17 17 17 16 16 16 16 16 16 16 16 16
24 24 24 23 23 23 23 22 22 22 22 21 21 21 20 20 20 20 20 19 19 19 19 19 18 18 18 18 18 18 17 17 17 17 16 16 16 16 16 16 16 16 16
24 24 23 23 23 23 23 22 22 22 22 21 21 21 20 20 20 20 20 19 19 19 19 18 18 18 18 18 18 18 17 17 17 16 16 16 16 16 16 16 16 16 15
24 23 23 23 23 23 23 22 22 22 22 21 21 21 20 20 20 19 19 19 19 19 18 18 18 18 18 18 17 17 17 17 16 16 16 16 16 16 16 16 16 15 15
23 23 23 23 22 22 22 22 22 22 21 21 21 21 20 20 20 19 19 19 19 18 18 18 18 18 18 17 17 17 17 17 16 16 16 16 15 15 15 15 15 15 15
22 23 23 22 22 22 22 22 21 21 21 21 21 20 20 20 19 19 19 19 18 18 18 18 18 17 17 17 17 17 17 16 16 16 16 16 15 15 15 15 15 15 15
22 22 22 22 22 22 21 21 21 21 21 21 20 20 20 19 19 19 18 18 18 18 18 17 17 17 17 17 17 17 16 16 16 16 16 16 16 15 15 15 15 15 15
22 22 22 22 22 22 21 21 21 21 21 20 20 20 19 19 19 18 18 18 18 17 17 17 17 17 17 17 16 16 16 16 16 16 16 15 15 15 15 15 15 15 15
23 22 22 22 22 21 21 21 21 20 20 20 20 19 19 19 18 18 18 18 17 17 17 16 16 16 16 16 16 16 16 15 15 15 15 15 15 15 15 15 15 15 15
22 22 22 22 21 21 21 20 20 20 20 20 19 19 19 18 18 18 18 17 17 17 16 16 16 16 16 16 16 15 15 15 15 15 15 15 15 14 14 14 14 14 14
22 22 21 21 21 21 20 20 20 19 19 19 19 19 18 18 18 18 17 17 17 16 16 16 15 15 15 15 15 15 15 15 15 15 14 14 14 14 14 14 14 14 14
21 21 21 21 20 20 20 20 19 19 19 18 18 18 18 18 18 17 17 17 16 16 16 15 15 15 15 15 15 15 15 15 14 14 14 14 14 14 14 14 14 14 13
21 20 20 20 20 19 19 19 19 18 18 18 18 17 17 17 17 17 16 16 16 15 15 15 15 15 15 15 15 15 14 14 14 14 14 14 14 14 14 13 13 13 13
20 20 19 19 19 19 19 18 18 18 17 17 17 17 17 16 16 16 16 16 15 15 15 14 14 14 14 14 14 14 14 14 14 14 14 14 14 13 13 13 13 13 13
19 19 19 19 18 18 18 18 18 18 17 17 17 16 16 16 16 16 16 15 15 15 15 14 14 14 14 14 14 14 14 14 13 13 13 13 13 13 13 13 13 12 12
19 18 18 18 18 18 17 17 17 17 17 17 16 16 16 15 15 15 15 15 14 14 14 14 14 14 14 14 14 14 13 13 13 13 13 13 13 13 13 13 12 12 12
Wind_Speed
10 11 11 11 10 9 8 7 7 6 5 3 3 2 2 1 1 2 3 4 4 4 4 2 2 2 2 2 2 2 2 1 1 1 1 2 1 1 2 2 2 3 5
9 10 10 11 10 10 9 8 8 7 5 4 3 3 2 2 2 2 2 4 4 4 4 3 3 2 2 2 1 2 1 1 2 3 2 1 3 3 2 2 3 3 3
14 13 12 11 11 11 10 9 8 7 6 5 3 2 2 1 1 1 1 2 4 4 3 4 3 2 3 2 2 2 2 1 1 2 3 2 3 2 2 2 2 2 3
12 13 13 13 13 12 10 9 9 8 7 6 5 5 4 3 3 3 2 2 2 3 3 3 3 2 2 2 2 2 2 2 1 1 1 3 4 2 1 2 2 2 3
14 15 14 14 12 12 11 9 9 8 7 6 6 5 4 3 2 2 2 2 1 2 3 3 3 3 3 3 2 2 2 2 3 2 1 1 1 2 2 2 2 2 2
14 13 12 10 10 10 10 9 9 8 7 7 6 6 6 5 4 3 3 2 1 1 2 2 3 3 3 3 3 2 3 3 2 2 2 2 2 2 3 3 3 2 2
12 12 12 11 11 11 11 10 9 8 7 7 7 7 7 7 6 5 4 4 2 2 2 2 2 2 3 3 3 2 2 2 2 2 2 2 3 3 3 3 2 2 2
11 12 13 12 12 11 11 10 10 8 8 7 7 6 6 5 5 5 5 4 4 4 3 3 3 3 3 3 3 2 2 2 2 3 2 2 2 2 3 3 3 1 1
11 12 11 12 12 12 11 11 11 9 8 8 7 6 6 5 5 5 4 3 3 3 4 4 3 3 3 3 3 2 2 2 2 2 2 1 1 1 1 2 4 4 2
9 9 9 10 10 10 10 10 10 10 8 8 7 7 6 6 5 5 5 4 4 4 4 3 3 3 2 3 3 2 2 2 2 2 1 1 1 1 1 1 2 3 4
10 9 8 9 9 8 8 8 9 8 8 7 6 5 5 5 5 4 5 5 4 4 4 4 3 3 3 3 2 2 2 2 2 2 1 2 1 1 1 1 1 1 2
9 9 9 8 8 8 8 8 8 8 8 8 7 6 5 5 5 4 4 4 4 4 4 4 3 3 3 3 3 4 3 3 2 2 2 2 1 1 1 0 1 2 2
7 7 7 8 8 9 8 8 8 9 8 7 7 6 5 5 5 5 4 4 4 3 3 3 4 4 3 3 3 3 3 3 3 3 3 2 1 1 1 1 1 2 1
8 8 7 7 7 7 7 8 8 8 8 7 7 6 7 6 6 5 5 4 4 4 3 4 4 4 3 3 2 3 3 2 2 2 3 2 3 2 2 2 1 1 1
7 8 8 7 6 6 5 6 6 6 7 7 7 7 6 5 5 5 5 4 4 4 4 3 3 3 3 3 3 3 4 3 2 2 2 2 2 3 2 2 2 2 2
6 5 6 6 6 6 6 6 6 6 6 7 7 6 5 5 5 5 4 4 4 3 3 3 3 3 3 4 4 4 3 3 3 2 2 2 2 2 2 2 2 4 4
7 6 6 6 6 5 6 6 6 6 6 6 5 5 5 5 5 5 4 4 4 3 3 2 3 3 3 3 3 4 4 3 3 3 2 2 1 1 1 2 1 1 2
7 6 6 5 4 4 4 5 5 5 6 5 5 5 5 5 5 5 5 4 4 4 3 3 3 2 2 3 3 4 3 3 3 3 3 2 1 1 1 1 0 1 2
6 5 5 5 4 3 3 4 4 4 5 5 5 5 5 5 5 5 5 4 4 3 3 3 3 3 2 2 3 3 2 2 2 2 2 2 2 2 2 1 0 2 3
5 5 5 4 4 3 3 5 4 3 4 5 5 5 5 6 6 5 4 3 4 4 4 3 3 3 2 2 3 3 2 2 1 1 1 2 2 2 2 2 1 2 3
5 5 5 3 3 3 4 4 4 4 5 4 3 3 4 4 4 3 3 4 4 4 3 3 2 2 2 2 3 4 2 2 2 1 1 2 2 2 2 2 2 4 3
5 6 5 3 2 3 5 4 4 4 3 3 3 3 3 3 3 3 2 3 4 4 3 3 1 1 1 1 2 3 3 3 2 2 2 1 1 2 2 1 2 1 0
5 5 5 4 2 3 4 4 4 4 5 4 3 3 3 2 2 3 2 2 2 3 3 3 2 1 1 1 1 2 2 2 2 2 3 2 1 1 1 2 1 0 0
4 5 5 4 3 2 3 4 4 5 6 5 4 3 3 2 1 1 1 2 2 3 3 3 3 2 2 1 1 0 1 1 1 1 1 0 1 0 1 1 0 0 1
3 4 5 5 4 3 2 2 3 5 6 5 4 4 4 3 2 2 1 2 2 4 4 4 4 4 3 4 4 3 2 2 2 2 1 1 1 1 1 1 1 0 0
3 4 4 4 3 3 2 2 3 5 6 5 4 4 4 4 3 3 1 3 0 2 3 4 4 3 4 4 3 4 4 4 4 4 1 1 2 2 2 2 2 1 2
Wind_Direction
175 165 163 159 156 154 152 150 152 158 146 135 131 124 143 160 160 187 182 174 168 159 152 150 144 140 151 166 154 152 147 172 140 100 5 341 331 231 222 206 191 196 194
168 167 166 164 164 166 163 158 162 163 160 162 161 160 163 173 178 183 178 180 167 165 167 158 164 162 153 144 130 134 139 204 153 147 125 352 340 316 260 209 195 198 183
176 175 175 173 170 173 173 171 170 169 171 167 148 125 87 65 83 157 192 201 179 172 165 164 169 165 161 175 186 162 155 202 256 169 158 168 224 288 315 264 217 201 195
176 178 176 176 179 180 177 171 171 172 173 165 160 165 167 182 205 199 198 210 183 170 166 169 168 163 157 177 196 160 165 168 228 257 223 198 174 176 275 316 279 233 214
178 179 180 180 179 177 175 174 171 173 174 174 175 173 184 197 203 181 183 207 211 186 180 174 166 169 172 186 185 166 165 180 195 215 230 229 200 171 179 251 288 296 256
181 180 178 172 174 175 174 173 172 180 179 178 179 180 186 189 184 190 191 209 217 236 221 177 170 176 183 190 195 196 188 196 201 209 195 183 182 203 187 217 243 254 265
176 175 173 173 175 177 178 175 175 184 185 182 186 188 186 183 187 190 194 195 205 221 229 205 187 192 195 194 187 191 207 209 210 220 221 215 214 200 182 182 218 246 275
175 177 178 175 174 174 175 176 180 184 184 184 192 192 186 183 189 189 187 191 200 212 213 199 201 200 194 196 184 190 206 211 225 235 224 222 232 204 188 180 172 203 295
174 176 174 173 175 174 176 178 180 186 190 191 190 191 189 188 192 194 190 192 204 209 201 196 197 199 196 190 180 193 206 206 228 235 224 221 243 228 214 186 175 172 210
168 172 174 177 179 178 177 177 179 185 188 191 194 197 196 196 195 191 197 200 207 206 195 201 199 202 200 189 189 203 212 217 244 229 202 230 251 246 237 204 193 177 185
174 178 181 179 176 169 167 173 180 181 184 190 194 193 191 195 194 198 206 206 206 197 195 194 194 191 193 197 192 211 216 226 252 255 221 241 244 242 267 237 198 192 175
179 176 173 170 171 176 177 178 179 185 188 186 185 193 194 192 197 205 209 203 204 206 200 193 187 194 198 199 197 212 214 209 231 246 224 244 246 258 275 272 243 225 203
160 162 162 170 178 184 186 186 187 190 188 181 183 189 192 195 203 206 203 196 195 200 198 184 187 198 205 206 206 207 210 202 210 214 203 222 206 236 255 253 239 230 223
155 157 161 170 176 181 186 186 189 188 182 178 181 189 199 202 205 205 201 199 194 194 194 190 192 191 189 196 206 201 203 208 214 212 204 208 203 214 229 235 225 206 190
152 161 167 170 168 166 167 166 170 172 174 174 186 201 205 200 198 201 204 202 197 198 197 181 183 189 196 213 209 209 204 202 209 212 207 209 201 208 217 221 210 194 201
162 162 161 163 169 175 175 170 171 173 169 176 191 197 193 192 194 199 198 192 194 192 176 180 182 190 223 235 215 204 204 201 195 205 224 224 208 236 247 242 215 198 203
167 163 161 164 171 177 179 183 183 172 169 179 186 185 188 193 200 197 190 195 194 179 174 191 186 199 227 222 205 201 189 192 191 194 206 229 251 235 258 269 269 264 234
164 166 161 160 168 173 175 183 178 169 171 177 182 184 185 195 198 191 192 196 186 180 188 197 199 192 214 200 197 191 182 185 203 207 203 200 239 259 214 194 341 311 296
164 168 163 155 152 155 168 160 164 169 173 181 185 189 189 194 197 196 198 191 175 182 187 185 185 180 216 190 177 163 160 177 215 225 205 197 205 243 187 142 262 315 313
140 139 135 131 139 159 141 135 148 159 184 191 190 186 186 189 194 195 194 185 174 185 182 188 192 182 183 167 151 154 154 164 216 270 258 219 205 223 180 170 183 268 288
133 128 128 137 163 162 135 138 151 181 196 181 164 158 167 174 176 175 174 167 170 175 179 178 180 169 177 165 137 137 150 182 186 215 263 275 249 237 222 184 203 241 252
139 137 134 143 154 146 141 150 176 193 168 149 150 153 157 156 146 147 166 169 165 168 177 173 172 203 209 175 143 134 150 165 171 213 235 240 229 229 242 224 263 261 271
147 147 143 145 152 159 158 174 201 175 153 144 150 150 138 133 138 150 161 158 163 171 179 178 186 218 237 230 157 136 158 176 192 228 225 212 206 222 241 256 259 265 64
150 152 146 149 166 175 176 189 189 164 152 155 159 149 141 138 119 125 152 162 175 181 181 181 189 201 210 214 222 211 201 187 188 247 286 83 113 55 317 326 341 130 188
161 155 160 168 176 170 182 194 166 147 152 160 162 156 153 156 146 122 137 181 204 195 188 193 190 187 211 237 210 190 204 201 192 159 74 40 32 2 334 325 311 285 297
159 150 158 166 175 167 171 175 152 148 149 156 162 165 161 158 154 143 59 10 286 193 189 198 194 215 221 223 201 191 193 179 150 131 146 199 225 235 244 254 273 268 249
Height
1522 1523 1526 1528 1529 1531 1532 1534 1535 1537 1538 1538 1539 1540 1540 1541 1541 1542 1542 1542 1542 1542 1542 1542 1543 1543 1543 1543 1543 1543 1543 1544 1544 1544 1544 1544 1544 1544 1544 1544 1544 1544 1544
1521 1523 1525 1527 1528 1530 1531 1533 1535 1536 1537 1538 1539 1540 1540 1541 1541 1541 1542 1542 1542 1542 1542 1542 1542 1542 1542 1542 1543 1543 1543 1543 1544 1544 1543 1543 1544 1542 1543 1543 1543 1542 1542
1518 1521 1523 1525 1527 1529 1530 1532 1534 1535 1536 1538 1539 1540 1540 1540 1541 1540 1541 1541 1541 1541 1541 1541 1541 1541 1541 1541 1542 1542 1542 1542 1543 1543 1543 1542 1541 1541 1542 1541 1541 1541 1541
1516 1518 1521 1523 1525 1527 1529 1531 1533 1534 1536 1537 1538 1538 1539 1539 1539 1540 1540 1541 1541 1541 1541 1541 1540 1541 1541 1541 1541 1541 1541 1541 1541 1541 1541 1541 1540 1540 1540 1540 1540 1540 1539
1513 1515 1518 1520 1523 1526 1528 1530 1532 1533 1535 1536 1537 1537 1538 1538 1539 1539 1539 1540 1540 1540 1540 1540 1540 1539 1539 1539 1539 1540 1539 1539 1539 1539 1539 1538 1538 1538 1538 1538 1538 1538 1538
1511 1513 1516 1519 1522 1524 1526 1528 1530 1532 1533 1534 1535 1536 1536 1537 1537 1538 1538 1538 1538 1538 1538 1538 1538 1538 1538 1538 1538 1538 1538 1538 1537 1537 1537 1536 1536 1536 1536 1536 1536 1536 1536
1509 1511 1514 1517 1519 1522 1524 1526 1528 1530 1531 1532 1533 1534 1535 1535 1536 1536 1536 1536 1536 1536 1536 1537 1536 1536 1536 1536 1536 1536 1536 1536 1535 1535 1535 1535 1534 1534 1534 1534 1533 1533 1533
1507 1509 1511 1514 1516 1519 1521 1523 1526 1527 1529 1530 1531 1532 1533 1534 1534 1534 1535 1535 1535 1535 1535 1535 1535 1534 1534 1534 1534 1534 1534 1533 1533 1533 1532 1532 1532 1532 1532 1532 1531 1531 1531
1505 1507 1510 1512 1514 1517 1519 1521 1523 1525 1527 1528 1529 1530 1531 1532 1532 1532 1533 1533 1534 1534 1533 1533 1533 1533 1532 1532 1532 1531 1531 1531 1530 1530 1530 1530 1529 1529 1529 1529 1529 1529 1528
1503 1506 1508 1510 1512 1515 1517 1519 1521 1523 1524 1526 1527 1528 1529 1529 1530 1530 1530 1531 1531 1531 1531 1531 1531 1530 1530 1529 1529 1528 1528 1528 1527 1527 1527 1527 1527 1527 1527 1526 1526 1526 1526
1502 1504 1507 1509 1511 1513 1515 1517 1518 1520 1522 1523 1525 1526 1527 1527 1528 1528 1528 1528 1529 1529 1529 1529 1529 1528 1528 1527 1527 1526 1526 1525 1524 1524 1524 1523 1523 1523 1523 1523 1523 1523 1523
1500 1502 1505 1507 1509 1511 1512 1514 1515 1517 1519 1521 1522 1523 1524 1525 1525 1525 1526 1526 1526 1526 1526 1526 1526 1526 1525 1525 1524 1524 1523 1522 1521 1520 1521 1521 1521 1521 1521 1521 1520 1521 1521
1498 1501 1503 1504 1506 1508 1510 1512 1513 1515 1517 1518 1519 1520 1521 1522 1522 1522 1523 1523 1523 1523 1524 1524 1523 1523 1523 1522 1522 1521 1520 1520 1520 1519 1519 1519 1519 1518 1518 1518 1518 1518 1518
1496 1498 1500 1502 1503 1505 1507 1509 1510 1512 1514 1516 1517 1517 1518 1518 1519 1519 1520 1520 1520 1521 1521 1521 1521 1520 1520 1520 1519 1519 1518 1518 1517 1517 1517 1517 1516 1516 1516 1515 1515 1515 1515
1494 1496 1498 1500 1501 1503 1505 1506 1507 1509 1511 1512 1513 1514 1515 1515 1516 1516 1517 1517 1517 1518 1518 1517 1517 1517 1518 1517 1517 1517 1516 1516 1515 1515 1515 1515 1515 1514 1514 1513 1513 1512 1512
1493 1494 1496 1498 1499 1501 1502 1503 1504 1506 1508 1509 1510 1511 1511 1512 1512 1512 1513 1513 1514 1514 1514 1514 1514 1514 1514 1514 1514 1514 1514 1513 1513 1513 1513 1512 1513 1512 1512 1511 1510 1510 1509
1490 1492 1493 1495 1497 1498 1499 1500 1500 1502 1504 1505 1506 1507 1507 1508 1508 1509 1509 1509 1510 1510 1510 1510 1511 1511 1511 1511 1511 1511 1511 1511 1511 1511 1510 1510 1510 1510 1509 1509 1508 1508 1507
1489 1490 1492 1493 1495 1496 1497 1497 1498 1499 1500 1501 1502 1503 1504 1504 1504 1505 1505 1505 1506 1506 1506 1507 1507 1507 1508 1508 1508 1509 1509 1509 1509 1509 1509 1508 1508 1508 1507 1507 1506 1506 1505
1487 1488 1489 1491 1492 1493 1494 1495 1495 1496 1497 1498 1498 1500 1500 1501 1501 1501 1501 1502 1502 1503 1503 1504 1504 1504 1505 1505 1506 1506 1506 1506 1507 1507 1507 1507 1506 1506 1506 1505 1504 1503 1503
1485 1486 1487 1488 1489 1490 1491 1491 1492 1493 1493 1494 1495 1496 1497 1497 1497 1497 1498 1499 1499 1499 1500 1501 1501 1501 1502 1503 1503 1504 1504 1504 1504 1504 1505 1505 1504 1504 1503 1503 1502 1501 1500
1484 1485 1486 1487 1487 1488 1489 1488 1489 1490 1491 1491 1492 1493 1493 1494 1494 1494 1495 1495 1496 1496 1497 1497 1498 1498 1499 1500 1500 1501 1501 1502 1502 1502 1502 1502 1502 1501 1501 1500 1500 1499 1498
1482 1483 1483 1484 1485 1486 1486 1486 1486 1487 1487 1488 1489 1490 1491 1491 1492 1492 1492 1492 1492 1493 1493 1494 1494 1495 1496 1497 1497 1498 1499 1500 1500 1499 1499 1499 1499 1499 1499 1498 1497 1497 1496
1480 1481 1481 1482 1483 1483 1483 1483 1483 1484 1484 1486 1487 1487 1488 1489 1490 1490 1490 1489 1490 1490 1490 1491 1491 1492 1494 1494 1495 1496 1497 1497 1497 1497 1497 1497 1497 1496 1496 1496 1495 1494 1494
1478 1478 1479 1479 1480 1480 1481 1480 1480 1480 1481 1482 1483 1484 1486 1486 1487 1487 1488 1488 1488 1488 1488 1488 1489 1490 1491 1491 1492 1493 1494 1494 1495 1495 1495 1495 1495 1494 1494 1493 1493 1492 1491
1475 1476 1476 1476 1477 1477 1478 1478 1477 1477 1478 1479 1480 1482 1483 1484 1485 1486 1486 1486 1486 1486 1486 1487 1487 1488 1488 1489 1490 1491 1491 1492 1492 1492 1492 1492 1492 1492 1491 1491 1490 1490 1489
1473 1474 1474 1474 1474 1475 1475 1475 1475 1475 1476 1477 1478 1480 1481 1482 1483 1483 1484 1484 1485 1485 1485 1486 1487 1487 1488 1488 1489 1489 1490 1490 1490 1490 1489 1489 1489 1489 1489 1488 1488 1487 1487